Probability
0 0 0 0 0 0 0 0 0 0 0 0 0 0 0 0 0 1 4 6 6 6 8 10 11 12 10 8 9 12 13 14 18 19 18 16 15 13 12 12 10 9 9 9 8 8 9 9 8
0 0 0 0 0 0 0 0 0 0 0 0 0 0 0 0 0 1 4 7 7 7 9 11 13 13 10 7 9 13 14 14 16 17 18 18 16 15 14 13 11 9 9 9 10 10 10 10 10
0 0 0 0 0 0 0 0 0 0 0 0 0 0 0 0 1 2 6 9 9 9 10 13 15 14 10 8 9 12 14 14 15 16 18 19 18 16 15 14 12 10 9 9 10 11 11 12 12
0 0 0 0 0 0 0 0 0 0 0 0 0 0 1 1 1 3 7 10 11 10 11 13 15 13 11 9 10 12 13 14 16 18 19 19 17 15 14 13 12 11 9 9 10 11 12 13 13
0 0 0 0 0 0 0 0 0 0 0 0 0 1 2 1 2 5 9 11 11 11 11 14 15 13 12 12 13 14 15 16 18 20 21 19 16 14 12 10 11 12 12 11 12 13 13 13 13
0 0 0 0 0 0 0 0 0 0 0 1 1 1 2 2 3 6 10 12 11 10 12 14 15 15 15 15 15 16 18 19 21 22 22 20 17 15 12 9 9 11 13 14 16 15 14 13 13
0 0 0 0 0 0 0 0 0 0 0 0 0 1 1 4 6 8 11 12 11 11 12 13 14 15 16 17 16 16 19 21 22 22 21 19 17 16 14 11 10 12 15 16 17 16 14 13 13
0 0 0 0 0 0 0 0 0 0 0 0 0 0 3 8 12 12 12 12 11 11 11 12 12 12 14 16 18 18 19 20 20 19 17 16 16 16 15 14 14 16 17 18 18 16 15 14 13
0 0 0 0 0 0 0 0 0 0 0 0 1 2 6 14 18 16 13 13 13 13 11 11 11 10 11 15 18 18 18 19 18 17 17 16 16 15 15 15 16 16 17 19 19 18 17 16 15
0 0 0 0 0 0 0 0 0 0 0 0 2 5 10 17 21 18 15 14 15 15 13 11 10 10 11 15 18 18 18 18 18 18 20 19 18 16 15 15 15 13 14 17 18 18 17 16 16
0 0 0 0 0 0 0 0 0 0 0 1 3 7 13 18 20 19 17 15 14 15 14 12 10 11 13 16 19 19 19 20 19 20 22 21 19 17 16 15 13 10 10 12 14 14 14 13 13
0 0 0 0 0 0 0 0 0 0 2 3 6 10 15 18 19 20 19 16 14 14 13 11 11 13 16 17 19 19 20 20 20 20 21 20 18 17 15 13 10 8 8 9 10 11 12 11 10
0 0 0 0 0 0 0 0 0 1 4 7 8 10 13 15 16 18 18 15 13 12 11 11 12 15 17 18 18 16 15 16 17 18 17 16 16 16 14 11 8 7 7 7 8 9 9 9 7
0 0 0 0 0 0 0 0 0 1 5 7 7 7 9 11 13 15 15 13 11 9 9 10 12 15 17 19 17 12 9 11 13 14 13 13 14 14 13 11 8 7 6 7 7 7 7 7 6
0 0 0 0 0 0 0 0 0 1 3 5 4 5 7 10 12 13 13 11 8 6 7 9 11 14 17 19 16 11 8 9 11 11 10 11 12 12 12 12 9 6 6 6 6 6 6 6 6
0 0 0 0 0 0 0 0 0 1 2 2 2 4 7 10 11 11 10 9 8 7 7 8 10 12 16 18 16 12 9 9 10 9 8 9 10 10 11 11 8 6 5 5 5 4 4 4 4
0 0 0 0 0 0 0 0 1 2 2 2 2 3 6 9 9 9 7 7 8 7 7 8 10 11 14 16 15 12 9 8 8 7 7 7 7 7 8 8 6 5 6 6 5 4 3 3 3
0 0 0 0 0 0 0 0 2 3 3 3 3 4 6 7 8 9 8 7 7 8 9 10 10 12 13 13 12 11 8 6 6 6 6 5 5 5 6 6 5 5 6 7 6 5 4 3 3
0 0 0 0 0 0 0 1 2 3 3 4 4 4 5 6 7 9 10 9 8 9 12 12 11 12 12 12 13 13 10 7 5 5 5 4 4 4 6 6 6 5 6 7 7 5 4 3 3
0 0 0 0 0 0 0 1 2 3 3 3 3 4 4 4 5 7 10 9 8 11 13 13 13 13 13 14 17 17 15 11 6 4 4 4 3 4 6 7 7 6 6 7 8 7 5 4 3
0 0 0 0 0 0 0 1 2 3 3 4 4 3 3 3 4 7 8 7 7 10 13 14 15 15 16 16 18 19 18 14 8 5 4 4 3 4 7 8 8 7 6 7 8 8 6 4 3
0 0 0 0 0 0 0 1 1 2 2 4 5 3 2 2 4 5 5 4 4 7 11 13 15 17 18 17 17 18 18 14 9 6 5 5 5 6 9 10 10 8 7 8 9 8 6 4 4
0 0 0 0 0 0 0 0 0 0 1 3 5 4 3 4 4 4 3 3 4 6 8 10 12 16 18 18 17 17 15 12 8 6 7 6 5 6 10 12 11 10 9 9 9 7 5 4 3
0 0 0 0 0 0 0 0 0 0 0 1 4 6 6 5 4 4 4 6 7 7 8 8 10 13 16 17 17 15 13 11 8 7 6 5 5 6 8 10 12 12 10 9 8 7 5 3 2
0 0 0 0 0 0 0 0 0 0 0 1 3 5 6 6 6 6 6 7 7 8 8 9 10 11 13 15 15 14 14 12 9 7 6 5 6 6 6 7 10 10 9 7 6 6 5 4 3
0 0 0 0 0 0 0 0 1 0 0 0 1 2 4 6 7 7 6 6 7 8 8 9 9 10 11 12 13 13 14 12 9 8 7 6 6 5 4 5 6 6 4 4 5 6 6 5 4
0 0 0 0 0 0 0 0 0 0 0 0 1 3 5 7 7 7 6 6 7 8 8 7 7 8 9 11 11 11 12 11 9 8 7 5 5 4 3 2 3 3 2 2 4 5 5 4 4
0 0 0 0 0 0 0 0 1 1 0 1 3 5 7 8 7 6 6 7 7 7 7 6 6 6 8 10 9 8 8 8 7 5 4 4 4 3 2 1 1 3 3 3 3 4 4 3 3
0 0 0 0 0 0 0 0 1 1 1 2 5 7 8 9 8 7 6 6 6 6 5 5 4 4 5 6 6 4 4 4 4 3 3 3 3 3 2 1 1 2 2 2 2 3 3 3 3
0 0 0 0 0 0 0 0 1 1 2 4 6 7 7 9 9 7 5 4 5 5 5 4 4 3 4 4 4 2 1 1 2 3 3 3 3 3 2 1 0 1 1 1 1 2 3 3 3
Wind_Speed
8 7 6 6 8 4 1 3 2 2 2 4 3 2 3 5 6 6 5 5 5 8 11 13 11 10 9 9 8 8 9 10 10 10 10 10 9 9 9 9 8 8 7 7 7 7 6 6 5
5 5 7 7 6 3 3 3 2 3 3 2 2 1 2 4 6 5 4 5 6 8 10 11 12 10 9 9 8 8 9 9 10 10 10 10 9 9 8 8 8 7 7 7 6 6 6 6 5
5 7 7 6 3 2 2 3 3 3 2 0 1 2 3 4 4 3 5 6 6 8 9 11 11 10 9 9 8 8 8 8 9 9 9 9 9 8 8 7 7 7 6 6 6 6 6 6 6
5 6 6 6 2 2 2 2 1 1 2 1 1 4 5 5 3 4 6 7 7 8 9 12 11 10 9 9 8 8 8 8 8 8 8 8 8 7 7 7 7 6 6 7 6 6 6 6 6
6 6 7 5 1 1 1 1 1 1 1 2 1 3 5 5 5 6 7 7 7 8 8 11 11 10 9 9 8 7 7 7 7 7 7 7 7 7 7 7 7 7 6 7 7 7 7 7 7
6 6 6 3 2 1 0 1 2 2 1 2 2 3 5 5 6 7 7 7 7 7 8 10 10 10 9 8 8 7 7 6 6 6 6 6 6 7 7 7 7 7 7 7 7 7 7 8 8
7 5 4 3 1 1 1 1 2 2 2 1 1 2 5 6 6 7 7 7 7 7 7 7 9 9 9 8 7 6 6 6 5 5 5 5 6 7 7 7 7 7 7 7 7 7 8 8 9
6 6 5 3 2 0 2 1 1 2 0 2 1 2 4 7 7 7 7 6 7 6 5 5 6 6 6 7 7 6 6 6 5 5 5 5 7 8 8 8 7 6 6 6 7 7 8 9 9
6 7 4 1 2 1 1 2 1 0 2 2 1 2 5 9 9 8 7 6 6 5 4 4 4 4 4 5 7 7 7 6 6 7 7 7 6 5 6 5 4 6 6 7 7 7 8 10 11
6 6 2 3 4 3 1 2 2 3 4 3 4 4 7 9 8 8 7 7 6 5 4 3 3 3 3 3 4 4 4 5 5 3 5 5 3 3 4 3 4 5 7 8 8 9 10 11 7
5 5 2 2 3 4 3 2 2 4 4 3 3 6 8 8 7 6 6 5 5 4 4 3 3 2 2 2 2 2 2 2 4 4 4 3 3 3 3 3 4 5 7 6 6 8 7 6 4
5 4 4 3 3 4 3 2 2 4 2 1 2 6 8 8 7 6 5 4 4 4 4 3 2 2 2 2 2 2 2 2 2 2 4 3 2 3 2 2 3 3 3 3 4 4 5 6 6
6 3 2 3 3 2 2 2 2 1 1 2 5 7 7 6 5 5 4 3 3 3 3 2 2 2 2 2 2 1 2 2 2 2 2 3 3 3 2 2 2 4 3 4 4 4 4 6 7
3 4 4 3 2 3 3 1 1 2 3 4 6 6 5 5 5 4 4 3 3 3 2 2 2 2 2 2 2 2 2 2 2 2 2 3 3 2 3 3 3 3 3 3 4 5 5 5 5
5 7 5 3 3 2 3 3 1 2 4 5 5 5 4 4 4 5 4 3 3 3 3 2 2 2 2 2 3 2 2 2 2 2 2 3 3 3 3 3 3 3 3 3 4 5 5 5 5
8 9 5 3 2 2 6 2 3 2 4 4 4 4 4 3 3 3 3 3 3 3 3 3 2 2 2 2 2 2 2 2 2 2 2 3 3 4 4 3 3 3 3 3 3 4 4 5 5
8 6 3 2 2 2 4 2 4 1 3 3 4 4 3 3 3 3 3 3 3 3 3 3 2 2 2 1 2 2 2 2 2 2 2 2 3 4 4 3 2 4 4 3 4 3 4 5 5
4 5 4 2 2 2 3 2 2 1 2 2 2 2 2 2 2 1 2 3 3 3 3 3 3 2 2 2 2 2 2 2 2 2 1 3 3 4 3 3 2 4 3 3 4 4 4 5 5
6 6 5 2 0 3 4 3 0 1 2 2 2 2 2 2 1 1 1 2 2 3 3 3 2 2 2 2 2 2 2 2 2 2 1 3 3 3 3 3 2 3 3 4 4 5 5 5 4
6 7 5 1 1 3 3 3 1 1 2 1 1 2 2 2 2 1 1 2 2 2 2 2 2 2 3 2 2 2 2 2 1 1 1 3 3 3 2 3 3 3 3 4 4 5 5 4 4
6 6 5 4 3 5 5 5 4 3 2 1 1 1 2 2 1 2 1 1 1 1 1 1 1 2 2 2 1 1 1 2 1 1 1 2 2 2 3 3 4 3 4 3 4 4 5 5 4
5 3 5 6 7 4 6 5 3 2 2 2 2 2 2 2 1 1 1 1 1 1 1 1 0 1 1 1 1 2 2 2 1 2 1 2 2 2 3 3 3 4 4 3 4 3 4 5 5
4 2 5 6 6 5 4 6 2 3 2 1 2 2 2 1 1 0 1 1 2 1 1 1 1 1 1 1 1 2 2 2 1 2 1 2 2 2 2 3 3 3 3 3 4 3 4 4 5
3 4 5 7 6 5 2 5 1 1 2 1 2 2 2 1 1 0 0 1 1 1 1 1 1 1 0 0 1 2 2 2 2 2 2 2 2 2 2 3 3 3 3 3 4 4 5 4 5
6 6 5 5 5 2 2 4 1 2 1 1 1 1 2 1 1 1 0 0 1 1 1 1 1 0 0 0 1 1 2 3 2 3 2 3 2 2 2 3 3 3 3 4 4 4 4 5 5
5 7 6 6 5 2 2 3 3 3 2 1 1 1 1 2 1 1 0 0 0 0 0 1 1 1 1 1 1 2 2 2 2 2 3 3 3 2 3 3 3 3 4 4 4 4 4 4 5
5 5 6 8 7 6 2 1 4 2 2 2 2 1 1 1 1 1 1 0 1 1 1 1 1 1 1 1 2 2 2 2 2 2 3 2 2 2 2 3 3 3 3 4 4 3 4 4 4
5 4 5 6 6 6 3 3 0 2 2 3 2 2 1 1 1 1 1 1 1 1 0 0 0 1 1 1 2 2 2 2 2 3 2 2 2 2 2 3 3 3 3 3 4 3 3 4 4
4 4 5 6 6 7 5 2 4 1 2 2 2 1 2 2 2 2 1 1 1 1 1 1 1 1 1 1 1 2 2 2 2 2 2 2 2 2 2 2 2 2 2 3 3 3 3 4 4
5 4 5 6 5 6 6 2 4 2 2 2 1 2 2 2 2 2 2 1 1 1 1 1 1 1 1 1 1 2 2 2 2 2 2 2 2 3 2 2 2 2 2 3 3 4 4 4 4
Wind_Direction
207 210 227 238 239 218 144 92 62 53 60 44 24 15 19 18 4 47 72 104 120 136 138 148 152 152 150 149 147 146 147 148 152 153 154 155 155 156 156 159 162 164 166 167 168 169 173 175 175
208 215 232 239 253 210 123 86 73 43 55 64 81 84 73 67 46 71 94 104 125 133 143 146 145 152 150 147 145 145 148 151 153 155 158 159 159 158 161 164 169 172 174 176 179 181 185 188 190
212 235 253 244 252 311 77 81 65 60 90 191 126 65 36 53 63 76 97 128 128 130 137 132 145 148 148 148 149 151 154 155 155 158 162 161 162 164 168 172 175 181 184 186 192 194 199 202 206
223 222 235 246 226 24 15 52 52 120 134 127 157 113 92 50 44 88 117 134 132 136 142 131 144 145 145 150 153 155 158 157 157 159 162 164 169 173 178 182 184 190 197 200 204 206 214 218 223
237 242 227 223 208 65 13 338 308 279 139 122 153 122 108 79 81 108 123 133 138 137 138 134 142 145 147 149 153 157 159 161 161 163 165 172 180 183 188 194 198 204 210 214 214 215 224 226 230
230 238 235 225 159 137 179 262 250 255 142 132 161 140 110 106 115 124 130 135 135 135 136 132 142 145 148 152 155 156 157 159 163 170 176 184 191 195 199 206 211 213 220 224 225 223 227 231 235
257 247 250 253 205 176 58 282 260 251 187 146 167 142 124 124 123 133 133 134 131 132 136 142 150 153 156 157 158 158 157 160 164 172 181 197 204 206 207 210 217 223 230 234 235 235 236 236 237
277 260 235 238 256 90 87 195 303 285 126 90 203 189 133 135 137 136 134 135 132 133 133 139 146 150 166 160 153 157 157 163 172 185 192 205 212 212 213 215 213 227 233 242 243 245 245 244 240
253 249 241 272 289 7 80 213 164 243 176 142 79 38 88 132 146 147 144 143 137 133 133 141 143 152 170 160 148 166 163 173 191 192 196 215 221 217 211 217 204 233 238 243 246 246 250 249 237
243 259 317 354 319 323 298 263 231 204 196 174 142 111 118 144 156 160 158 154 148 143 142 143 152 165 169 156 155 178 181 173 208 203 201 215 213 235 253 164 207 241 247 244 243 246 244 246 240
247 273 330 316 322 308 284 259 246 245 240 209 178 151 146 156 163 166 163 157 151 151 149 149 155 175 181 165 180 185 189 178 203 203 207 212 222 218 237 229 205 223 234 243 233 236 241 250 255
247 269 296 304 317 282 277 261 250 261 289 33 147 149 153 162 167 165 159 153 150 156 157 156 162 179 197 194 193 203 205 209 222 200 221 211 222 231 231 246 265 254 247 257 263 259 257 256 254
238 259 280 280 269 270 265 264 288 291 97 129 135 145 155 161 161 152 147 151 162 164 157 157 182 177 190 200 230 223 237 237 217 230 223 238 234 237 235 244 262 275 275 261 260 262 267 262 251
268 274 274 256 238 203 223 228 192 127 133 144 144 150 156 164 165 163 163 166 176 180 186 177 193 173 194 207 225 231 236 233 250 234 236 244 251 249 253 246 255 268 273 282 274 271 266 261 265
253 249 237 199 211 187 236 209 159 131 161 157 157 153 156 164 170 180 181 183 189 205 201 187 193 183 207 223 232 231 242 246 256 249 236 247 257 254 257 257 255 269 275 270 267 272 268 263 260
230 237 234 144 196 198 247 244 91 142 171 164 163 160 162 169 183 188 189 193 205 216 200 199 212 199 206 224 252 263 263 260 259 262 243 243 253 252 257 263 268 279 266 260 266 267 273 274 272
216 249 266 139 151 212 251 286 89 117 177 171 173 171 162 171 193 193 202 206 213 211 196 195 204 207 209 213 231 244 240 255 263 266 263 251 250 248 257 266 279 270 268 272 275 278 281 280 277
266 273 269 276 112 229 255 290 101 139 181 177 177 167 165 187 204 206 224 208 211 207 190 187 191 193 213 216 216 231 223 228 239 252 266 268 247 247 267 265 268 272 273 274 281 285 277 278 276
281 272 273 287 30 254 264 275 225 198 200 175 180 188 197 198 180 181 209 198 206 202 197 193 195 195 214 227 233 231 233 237 235 243 265 265 262 249 258 279 269 273 273 274 274 276 270 270 276
255 260 262 245 174 254 273 272 225 185 198 201 212 215 216 210 173 157 178 186 209 222 214 206 205 205 227 229 247 252 276 264 259 279 255 264 262 259 250 270 270 274 274 266 269 271 278 280 276
254 264 277 268 233 225 243 233 185 165 181 208 236 245 240 239 218 178 178 182 203 210 208 220 230 225 249 259 245 221 228 236 219 233 234 260 259 255 275 268 276 275 268 267 267 268 270 277 274
263 265 261 246 245 242 246 271 158 164 183 207 232 245 255 250 225 181 166 189 218 212 181 173 182 212 212 229 244 247 263 272 288 281 277 257 240 255 261 266 268 272 274 274 268 276 277 273 274
283 275 250 244 250 263 239 266 131 153 244 228 206 224 239 248 246 207 173 198 211 204 167 149 155 179 185 216 227 247 259 276 279 276 271 266 247 259 270 268 266 269 272 275 284 287 278 274 278
221 218 221 226 236 250 262 270 268 135 288 267 159 185 207 221 210 62 95 164 197 196 179 154 152 143 96 281 266 270 286 293 293 281 276 269 262 258 271 264 262 267 281 277 275 276 270 279 285
230 256 248 233 232 252 130 264 20 78 21 325 133 159 170 168 161 127 115 172 205 192 181 174 174 195 293 309 285 278 272 266 264 276 275 283 287 285 293 282 274 278 277 277 283 276 278 274 277
243 272 291 298 298 303 187 265 72 84 81 102 127 146 154 159 152 145 143 317 58 101 76 276 287 316 332 311 290 285 281 269 268 276 286 285 292 310 319 300 293 293 292 292 290 281 278 279 280
246 257 299 286 281 275 243 169 141 117 139 153 160 171 153 140 122 121 108 66 58 61 34 340 353 336 327 319 306 295 296 292 295 279 268 278 294 305 305 296 303 311 309 305 297 299 297 294 286
290 292 266 273 287 283 266 260 320 156 175 158 166 171 145 130 105 93 85 68 71 85 100 23 3 337 339 317 290 291 298 290 275 271 284 302 311 310 287 293 299 302 302 307 308 305 313 301 292
226 234 262 274 290 293 295 352 47 102 168 168 155 140 133 135 124 99 84 70 65 67 75 46 333 318 318 313 305 308 294 288 283 282 281 285 290 282 272 280 289 296 301 310 309 311 314 303 296
261 266 255 270 276 275 289 15 81 104 160 163 148 123 113 117 112 105 92 80 69 60 47 22 338 327 307 306 294 290 304 305 294 301 316 312 294 280 286 296 304 303 309 309 300 305 313 313 310